Regional Weather Roundup
Issued by NWS

Home | Current Version | Previous Version | Graphics & Text | Print | Product List | Glossary On
Versions: 1 2 3 4 5 6 7 8 9 10 11 12 13 14 15 16 17 18 19 20 21 22 23 24 25 26 27
000
ASUS45 KBOU 241007
RWRCO

WEATHER ROUNDUP FOR COLORADO
NATIONAL WEATHER SERVICE DENVER/BOULDER CO
300 AM MST FRI FEB 24 2017

NOTE: "FAIR" INDICATES FEW OR NO CLOUDS BELOW 12000 FEET WITH NO
SIGNIFICANT WEATHER AND/OR OBSTRUCTIONS TO VISIBILITY.

COZ001>005-013-030-031-241100-
...NORTHWEST COLORADO...

CITY           SKY/WX    TMP DP  RH WIND       PRES   REMARKS
CRAIG          CLOUDY    19  12  74 W8        29.78S WCI   9
HAYDEN         CLOUDY    18  10  73 NW9       29.76R WCI   6
MEEKER         LGT SNOW  20  17  88 SW3       29.77F FOG
MOUNT WERNER   NOT AVBL
STEAMBOAT SPGS CLOUDY    17  15  90 SW3       29.74S
WALDEN         NOT AVBL
$$

COZ006>008-011-241100-
...WEST CENTRAL VALLEYS...

CITY           SKY/WX    TMP DP  RH WIND       PRES   REMARKS
GRAND JUNCTION FAIR      22  21  96 NE5       29.82S WCI  16
MONTROSE       FAIR      21  13  71 S6        29.83F WCI  13
EAGLE          FAIR      17  14  88 E5        29.78F WCI  10
RIFLE          CLOUDY    25  21  85 CALM      29.81F
DELTA          FAIR      24  16  71 NE3       29.83S
NUCLA          CLOUDY    28  18  64 E7        29.85S WCI  21
$$

COZ017>023-064>068-241100-
...SOUTHWEST COLORADO...

CITY           SKY/WX    TMP DP  RH WIND       PRES   REMARKS
DURANGO        CLOUDY    19  11  70 CALM      29.80S
CORTEZ         CLOUDY    24  18  77 SW3       29.84R
PAGOSA SPRINGS FAIR      10   2  70 CALM      29.78S
TELLURIDE      LGT SNOW  12  10  91 CALM      29.75F
WOLF CREEK PAS CLOUDY     0  -4  85 SW12      29.68F WCI -18
$$

COZ009-010-012-014-032>034-037-058>063-241100-
...CENTRAL COLORADO...

CITY           SKY/WX    TMP DP  RH WIND       PRES   REMARKS
ASPEN          CLOUDY    14   6  70 S5        29.72S WCI   6
BUENA VISTA    FAIR      13   2  61 N7        29.70F WCI   3
COPPER MTN     LGT SNOW   5  -4  66 MISG      29.57F
BERTHOUD PASS  LGT SNOW  -4 -13  65 NW24G32   29.52R WCI -29
COTTONWOOD PAS FAIR      14  -2  48 NW7       29.64F WCI   4
GUNNISON       FAIR       6  -1  73 NE8       29.76F WCI  -7
KREMMLING      LGT SNOW  21  18  86 CALM      29.72F
LEADVILLE      MOCLDY     2  -5  72 N3        29.63F
MONARCH PASS   CLOUDY     1  -4  78 W24G33    29.68S WCI -22
SALIDA         FAIR      19   5  54 SW8       29.80S WCI   9
SUNLIGHT       NOT AVBL
WILKERSON PASS FAIR       3  -4  72 SW10G17   29.60S WCI -12
$$

COZ069>075-241100-
...SAN LUIS VALLEY/SANGRE DE CRISTO MOUNTAINS...

CITY           SKY/WX    TMP DP  RH WIND       PRES   REMARKS
ALAMOSA        FAIR      14   9  80 CALM      29.74F
LA VETA PASS   FAIR       9   0  66 SW13G20   29.65S WCI  -7
SAGUACHE       FAIR      12   3  67 NW12      29.74S WCI  -2
$$

COZ035-036-038>040-241100-
...NORTHERN COLORADO FRONT RANGE...

CITY           SKY/WX    TMP DP  RH WIND       PRES   REMARKS
DENVER INTL AP FLURRIES  19  14  81 N8        29.84R WCI   9
DMNS CITY PARK   N/A     19  14  82 NW7       29.85S WCI  10
AURORA         FLURRIES  17  15  93 N6        29.83S WCI   9
FRONT RANGE AP FLURRIES  21  19  93 NW7       29.84S WCI  13
ERIE MUNI ARPT FLURRIES  20  17  88 CALM      29.86S
BOULDER MUN AP CLOUDY    21  16  79 CALM      29.85S
CENTENNIAL     LGT SNOW  16  13  88 NW8       29.81F FOG     WCI   5
BROOMFIELD     FLURRIES  19  18  93 NW5       29.83F WCI  13
FORT COLLINS   FLURRIES  20  13  74 N12       29.87S WCI   8
LONGMONT       CLOUDY    21  16  79 NW3       29.88F
$$

COZ041-046-047-076>085-087-088-241100-
...PIKES PEAK/PALMER DIVIDE AND SOUTHERN FOOTHILLS...

CITY           SKY/WX    TMP DP  RH WIND       PRES   REMARKS
COLO. SPRINGS  FAIR      14   5  67 NW7       29.76R WCI   4
A. F. ACADEMY  FAIR      12   6  75 N17       29.72R WCI  -5
SCHRIEVER AFB  FAIR      13   7  77 N15G22    29.76R WCI  -3
ELLICOTT       FAIR       1  32 100 N20G30      N/A  WCI -20
FALCON         FLURRIES  10   6  82 N20       29.74S WCI  -8
FORT CARSON    FAIR      15   7  69 NW9       29.76S WCI   3
LIMON          CLOUDY    17  15  92 N20G25    29.80S WCI   1
MONUMENT HILL  LGT SNOW   9   7  92 NW7       29.76F WCI  -3
TRINIDAD       CLOUDY    22  15  75 E5        29.79F WCI  16
$$

COZ042>045-048>051-090-091-241100-
...NORTHEAST COLORADO...

CITY           SKY/WX    TMP DP  RH WIND       PRES   REMARKS
GREELEY ARPT   CLOUDY    20  16  84 N7        29.89S WCI  11
AKRON          LGT SNOW  18  15  88 N10       29.83S FOG     WCI   6
BURLINGTON     FAIR      21  17  84 N17G24    29.80S WCI   7
WRAY           NOT AVBL
STERLING       LGT SNOW  23  19  86 N10       29.86F WCI  12
HOLYOKE        LGT SNOW  25  21  86 N12       29.86S WCI  14
FORT MORGAN    CLOUDY    20  18  91 N13       29.86F WCI   7
$$

COZ086-089-092>099-241100-
...SOUTHEAST COLORADO...

CITY           SKY/WX    TMP DP  RH WIND       PRES   REMARKS
PUEBLO         FAIR      15   7  70 E6        29.83R WCI   6
LA JUNTA       FAIR      20  11  68 NW5       29.87R WCI  13
LAMAR          CLOUDY    26  14  60 NW8       29.86R WCI  18
SPRINGFIELD      N/A     22  15  75 NW18      29.82R WCI   7
$$




USA.gov is the U.S. government's official web portal to all federal, state and local government web resources and services.